Time,TemperatureF,DewpointF,PressureIn,WindDirection,WindDirectionDegrees,WindSpeedMPH,WindSpeedGustMPH,Humidity,HourlyPrecipIn,Conditions,Clouds,dailyrainin,SoftwareType,DateUTC
2013-05-15 00:03:00,30.3,19.2,29.26,SW,225,0.0,0.0,63,0.00,,,0.00,WUHU216HW,2013-05-15 08:03:00,
2013-05-15 00:08:00,30.0,18.8,29.26,SSW,203,0.6,0.6,63,0.00,,,0.00,WUHU216HW,2013-05-15 08:08:00,
2013-05-15 00:13:00,30.0,18.8,29.26,SSE,158,0.0,0.6,63,0.00,,,0.00,WUHU216HW,2013-05-15 08:13:00,
2013-05-15 00:18:00,29.8,18.7,29.26,South,180,3.8,3.8,63,0.00,,,0.00,WUHU216HW,2013-05-15 08:18:00,
2013-05-15 00:23:00,29.8,18.7,29.27,South,180,0.0,3.8,63,0.00,,,0.00,WUHU216HW,2013-05-15 08:23:00,
2013-05-15 00:28:00,29.8,18.7,29.27,SSE,158,0.0,3.8,63,0.00,,,0.00,WUHU216HW,2013-05-15 08:28:00,
2013-05-15 00:33:00,29.6,18.5,29.27,SSE,158,0.0,0.0,63,0.00,,,0.00,WUHU216HW,2013-05-15 08:33:00,
2013-05-15 00:38:00,29.6,18.9,29.27,South,180,0.0,0.0,64,0.00,,,0.00,WUHU216HW,2013-05-15 08:38:00,
2013-05-15 00:43:00,29.4,18.7,29.27,South,180,0.0,0.0,64,0.00,,,0.00,WUHU216HW,2013-05-15 08:43:00,
2013-05-15 00:48:00,29.4,18.5,29.27,SSE,158,0.0,0.0,64,0.00,,,0.00,WUHU216HW,2013-05-15 08:48:00,
2013-05-15 00:53:00,29.3,18.9,29.27,SSE,158,0.0,0.0,65,0.00,,,0.00,WUHU216HW,2013-05-15 08:53:00,
2013-05-15 00:58:00,29.3,18.9,29.27,SSE,158,0.0,0.0,65,0.00,,,0.00,WUHU216HW,2013-05-15 08:58:00,
2013-05-15 01:03:00,29.3,19.3,29.27,SSE,158,0.0,0.0,66,0.00,,,0.00,WUHU216HW,2013-05-15 09:03:00,
2013-05-15 01:08:00,29.1,19.1,29.28,SSE,158,0.0,0.0,66,0.00,,,0.00,WUHU216HW,2013-05-15 09:08:00,
2013-05-15 01:13:00,28.9,18.6,29.28,SSE,158,0.0,0.0,65,0.00,,,0.00,WUHU216HW,2013-05-15 09:13:00,
2013-05-15 01:18:00,28.7,18.9,29.28,SSE,158,0.0,0.0,66,0.00,,,0.00,WUHU216HW,2013-05-15 09:18:00,
2013-05-15 01:23:00,28.5,19.0,29.28,SSE,158,0.0,0.0,67,0.00,,,0.00,WUHU216HW,2013-05-15 09:23:00,
2013-05-15 01:28:00,28.5,19.3,29.27,SSE,158,0.0,0.0,68,0.00,,,0.00,WUHU216HW,2013-05-15 09:28:00,
2013-05-15 01:33:00,28.2,18.6,29.28,SSE,158,0.0,0.0,67,0.00,,,0.00,WUHU216HW,2013-05-15 09:33:00,
2013-05-15 01:38:00,28.2,19.0,29.28,SSE,158,0.0,0.0,68,0.00,,,0.00,WUHU216HW,2013-05-15 09:38:00,
2013-05-15 01:43:00,28.2,19.4,29.29,SSE,158,0.0,0.0,69,0.00,,,0.00,WUHU216HW,2013-05-15 09:43:00,
2013-05-15 01:48:00,28.0,19.2,29.28,SSE,158,0.0,0.0,69,0.00,,,0.00,WUHU216HW,2013-05-15 09:48:00,
2013-05-15 01:53:00,28.0,19.2,29.28,SSE,158,0.0,0.0,69,0.00,,,0.00,WUHU216HW,2013-05-15 09:53:00,
2013-05-15 01:58:00,28.0,19.2,29.28,SSE,158,0.0,0.0,69,0.00,,,0.00,WUHU216HW,2013-05-15 09:58:00,
2013-05-15 02:03:00,28.0,19.2,29.29,SSE,158,0.0,0.0,69,0.00,,,0.00,WUHU216HW,2013-05-15 10:03:00,
2013-05-15 02:08:00,27.6,18.8,29.28,SSE,158,0.0,0.0,69,0.00,,,0.00,WUHU216HW,2013-05-15 10:08:00,
2013-05-15 02:13:00,27.6,19.2,29.29,SSE,158,0.0,0.0,70,0.00,,,0.00,WUHU216HW,2013-05-15 10:13:00,
2013-05-15 02:18:00,27.6,19.5,29.29,SSE,158,0.0,0.0,71,0.00,,,0.00,WUHU216HW,2013-05-15 10:18:00,
2013-05-15 02:23:00,27.6,19.5,29.29,SSE,158,0.0,0.0,71,0.00,,,0.00,WUHU216HW,2013-05-15 10:23:00,
2013-05-15 02:28:00,27.6,19.5,29.29,SSE,158,0.0,0.0,71,0.00,,,0.00,WUHU216HW,2013-05-15 10:28:00,
2013-05-15 02:33:00,27.5,19.3,29.29,SSE,158,0.0,0.0,71,0.00,,,0.00,WUHU216HW,2013-05-15 10:33:00,
2013-05-15 02:38:00,27.5,19.3,29.29,SSE,158,0.0,0.0,71,0.00,,,0.00,WUHU216HW,2013-05-15 10:38:00,
2013-05-15 02:43:00,27.3,19.1,29.29,SSE,158,0.0,0.0,71,0.00,,,0.00,WUHU216HW,2013-05-15 10:43:00,
2013-05-15 02:48:00,27.3,19.1,29.29,SSE,158,0.0,0.0,71,0.00,,,0.00,WUHU216HW,2013-05-15 10:48:00,
2013-05-15 02:53:00,27.1,18.9,29.29,SSE,158,0.0,0.0,71,0.00,,,0.00,WUHU216HW,2013-05-15 10:53:00,
2013-05-15 02:58:00,27.1,18.9,29.29,SSE,158,0.0,0.0,71,0.00,,,0.00,WUHU216HW,2013-05-15 10:58:00,
2013-05-15 03:03:00,27.1,19.2,29.29,SSE,158,0.0,0.0,72,0.00,,,0.00,WUHU216HW,2013-05-15 11:03:00,
2013-05-15 03:08:00,26.9,19.1,29.29,SSE,158,0.0,0.0,72,0.00,,,0.00,WUHU216HW,2013-05-15 11:08:00,
2013-05-15 03:13:00,26.9,19.1,29.29,SSE,158,0.0,0.0,72,0.00,,,0.00,WUHU216HW,2013-05-15 11:13:00,
2013-05-15 03:21:00,26.7,19.2,29.29,SSE,158,0.0,0.0,73,0.00,,,0.00,WUHU216HW,2013-05-15 11:21:00,
2013-05-15 03:26:00,26.6,19.0,29.29,SSE,158,0.0,0.0,73,0.00,,,0.00,WUHU216HW,2013-05-15 11:26:00,
2013-05-15 03:31:00,26.4,18.8,29.29,SSE,158,0.0,0.0,73,0.00,,,0.00,WUHU216HW,2013-05-15 11:31:00,
2013-05-15 03:36:00,26.4,18.8,29.30,SSE,158,0.0,0.0,73,0.00,,,0.00,WUHU216HW,2013-05-15 11:36:00,
2013-05-15 03:41:00,26.4,18.8,29.30,SSE,158,0.0,0.0,74,0.00,,,0.00,WUHU216HW,2013-05-15 11:41:00,
2013-05-15 03:46:00,26.4,19.1,29.30,East,90,0.0,0.0,74,0.00,,,0.00,WUHU216HW,2013-05-15 11:46:00,
2013-05-15 03:51:00,26.2,19.0,29.30,East,90,0.0,0.0,74,0.00,,,0.00,WUHU216HW,2013-05-15 11:51:00,
2013-05-15 03:56:00,26.2,19.0,29.30,East,90,0.0,0.0,74,0.00,,,0.00,WUHU216HW,2013-05-15 11:56:00,
2013-05-15 04:02:00,26.2,19.3,29.30,ENE,68,0.0,0.0,75,0.00,,,0.00,WUHU216HW,2013-05-15 12:02:00,
2013-05-15 04:07:00,26.2,19.3,29.30,ENE,68,0.0,0.0,75,0.00,,,0.00,WUHU216HW,2013-05-15 12:07:00,
2013-05-15 04:12:00,26.2,19.3,29.30,ENE,68,0.0,0.0,75,0.00,,,0.00,WUHU216HW,2013-05-15 12:12:00,
2013-05-15 04:17:00,26.0,19.1,29.30,ENE,68,0.0,0.0,75,0.00,,,0.00,WUHU216HW,2013-05-15 12:17:00,
2013-05-15 04:22:00,25.8,18.9,29.30,ENE,68,0.0,0.0,75,0.00,,,0.00,WUHU216HW,2013-05-15 12:22:00,
2013-05-15 04:27:00,25.8,19.2,29.30,ENE,68,0.0,0.0,76,0.00,,,0.00,WUHU216HW,2013-05-15 12:27:00,
2013-05-15 04:33:00,25.8,19.2,29.30,ENE,68,0.0,0.0,76,0.00,,,0.00,WUHU216HW,2013-05-15 12:33:00,
2013-05-15 04:38:00,25.7,19.1,29.30,ENE,68,0.0,0.0,76,0.00,,,0.00,WUHU216HW,2013-05-15 12:38:00,
2013-05-15 04:43:00,25.7,19.1,29.30,ENE,68,0.0,0.0,76,0.00,,,0.00,WUHU216HW,2013-05-15 12:43:00,
2013-05-15 04:48:00,25.5,18.6,29.30,ENE,68,0.0,0.0,75,0.00,,,0.00,WUHU216HW,2013-05-15 12:48:00,
2013-05-15 04:53:00,25.5,18.9,29.30,ENE,68,0.0,0.0,76,0.00,,,0.00,WUHU216HW,2013-05-15 12:53:00,
2013-05-15 04:58:00,25.3,18.7,29.30,ENE,68,0.0,0.0,76,0.00,,,0.00,WUHU216HW,2013-05-15 12:58:00,
2013-05-15 05:03:00,25.1,18.6,29.30,ENE,68,0.0,0.0,76,0.00,,,0.00,WUHU216HW,2013-05-15 13:03:00,
2013-05-15 05:08:00,25.1,18.6,29.30,ENE,68,0.0,0.0,76,0.00,,,0.00,WUHU216HW,2013-05-15 13:08:00,
2013-05-15 05:13:00,25.1,18.6,29.30,ENE,68,0.0,0.0,76,0.00,,,0.00,WUHU216HW,2013-05-15 13:13:00,
2013-05-15 05:19:00,24.9,18.4,29.30,ENE,68,0.0,0.0,76,0.00,,,0.00,WUHU216HW,2013-05-15 13:19:00,
2013-05-15 05:24:00,24.9,18.7,29.30,ENE,68,0.0,0.0,77,0.00,,,0.00,WUHU216HW,2013-05-15 13:24:00,
2013-05-15 05:29:00,24.9,18.7,29.31,ENE,68,0.0,0.0,77,0.00,,,0.00,WUHU216HW,2013-05-15 13:29:00,
2013-05-15 05:35:00,24.9,18.7,29.30,ENE,68,0.0,0.0,77,0.00,,,0.00,WUHU216HW,2013-05-15 13:35:00,
2013-05-15 05:40:00,24.9,18.7,29.31,ENE,68,0.0,0.0,77,0.00,,,0.00,WUHU216HW,2013-05-15 13:40:00,
2013-05-15 05:45:00,24.9,18.7,29.31,ENE,68,0.0,0.0,77,0.00,,,0.00,WUHU216HW,2013-05-15 13:45:00,
2013-05-15 05:50:00,24.9,18.7,29.31,ENE,68,0.0,0.0,77,0.00,,,0.00,WUHU216HW,2013-05-15 13:50:00,
2013-05-15 05:55:00,24.9,18.7,29.31,ENE,68,0.0,0.0,77,0.00,,,0.00,WUHU216HW,2013-05-15 13:55:00,
2013-05-15 06:00:00,24.9,18.7,29.31,ENE,68,0.0,0.0,77,0.00,,,0.00,WUHU216HW,2013-05-15 14:00:00,
2013-05-15 06:05:00,25.1,19.2,29.31,ENE,68,0.0,0.0,78,0.00,,,0.00,WUHU216HW,2013-05-15 14:05:00,
2013-05-15 06:10:00,25.3,19.4,29.32,ENE,68,0.0,0.0,78,0.00,,,0.00,WUHU216HW,2013-05-15 14:10:00,
2013-05-15 06:16:00,25.5,19.5,29.32,ENE,68,0.0,0.0,78,0.00,,,0.00,WUHU216HW,2013-05-15 14:16:00,
2013-05-15 06:21:00,25.8,19.9,29.32,ENE,68,0.0,0.0,78,0.00,,,0.00,WUHU216HW,2013-05-15 14:21:00,
2013-05-15 06:26:00,25.8,19.9,29.32,ENE,68,0.0,0.0,78,0.00,,,0.00,WUHU216HW,2013-05-15 14:26:00,
2013-05-15 06:31:00,26.6,20.5,29.32,ENE,68,0.0,0.0,78,0.00,,,0.00,WUHU216HW,2013-05-15 14:31:00,
2013-05-15 06:36:00,27.1,21.1,29.32,ENE,68,0.0,0.0,78,0.00,,,0.00,WUHU216HW,2013-05-15 14:36:00,
2013-05-15 06:41:00,28.0,21.4,29.32,ENE,68,0.0,0.0,78,0.00,,,0.00,WUHU216HW,2013-05-15 14:41:00,
2013-05-15 06:46:00,29.1,23.3,29.31,ENE,68,0.0,0.0,79,0.00,,,0.00,WUHU216HW,2013-05-15 14:46:00,
2013-05-15 06:52:00,30.2,24.1,29.31,ENE,68,0.0,0.0,78,0.00,,,0.00,WUHU216HW,2013-05-15 14:52:00,
2013-05-15 06:57:00,30.9,24.2,29.32,ENE,68,0.0,0.0,76,0.00,,,0.00,WUHU216HW,2013-05-15 14:57:00,
2013-05-15 07:02:00,31.1,24.0,29.32,ENE,68,0.0,0.0,75,0.00,,,0.00,WUHU216HW,2013-05-15 15:02:00,
2013-05-15 07:07:00,31.2,24.2,29.32,ENE,68,0.0,0.0,75,0.00,,,0.00,WUHU216HW,2013-05-15 15:07:00,
2013-05-15 07:13:00,31.4,24.1,29.32,ENE,68,0.0,0.0,74,0.00,,,0.00,WUHU216HW,2013-05-15 15:13:00,
2013-05-15 07:18:00,31.6,24.2,29.32,ENE,68,0.0,0.0,74,0.00,,,0.00,WUHU216HW,2013-05-15 15:18:00,
2013-05-15 07:23:00,31.8,24.4,29.32,ENE,68,0.0,0.0,74,0.00,,,0.00,WUHU216HW,2013-05-15 15:23:00,
2013-05-15 07:28:00,32.1,24.8,29.32,ENE,68,0.2,0.2,74,0.00,,,0.00,WUHU216HW,2013-05-15 15:28:00,
2013-05-15 07:33:00,32.7,25.3,29.32,ENE,68,0.0,0.2,74,0.00,,,0.00,WUHU216HW,2013-05-15 15:33:00,
2013-05-15 07:38:00,32.9,25.4,29.32,ENE,68,0.0,0.0,74,0.00,,,0.00,WUHU216HW,2013-05-15 15:38:00,
2013-05-15 07:43:00,33.2,25.6,29.32,ENE,68,0.0,0.0,73,0.00,,,0.00,WUHU216HW,2013-05-15 15:43:00,
2013-05-15 07:49:00,33.6,25.7,29.33,ENE,68,0.0,0.0,73,0.00,,,0.00,WUHU216HW,2013-05-15 15:49:00,
2013-05-15 07:54:00,34.1,26.3,29.32,ENE,68,0.0,0.0,73,0.00,,,0.00,WUHU216HW,2013-05-15 15:54:00,
2013-05-15 07:59:00,34.3,26.4,29.33,ENE,68,0.0,0.0,73,0.00,,,0.00,WUHU216HW,2013-05-15 15:59:00,
2013-05-15 08:04:00,34.8,26.7,29.32,ENE,68,0.0,0.0,72,0.00,,,0.00,WUHU216HW,2013-05-15 16:04:00,
2013-05-15 08:10:00,35.6,27.4,29.32,ENE,68,0.0,0.0,72,0.00,,,0.00,WUHU216HW,2013-05-15 16:10:00,
2013-05-15 08:15:00,36.1,27.6,29.32,ENE,68,0.0,0.0,71,0.00,,,0.00,WUHU216HW,2013-05-15 16:15:00,
2013-05-15 08:20:00,36.5,27.6,29.33,ENE,68,0.0,0.0,70,0.00,,,0.00,WUHU216HW,2013-05-15 16:20:00,
2013-05-15 08:25:00,37.2,28.0,29.33,ENE,68,0.0,0.0,69,0.00,,,0.00,WUHU216HW,2013-05-15 16:25:00,
2013-05-15 08:30:00,37.9,28.3,29.33,ENE,68,0.0,0.0,68,0.00,,,0.00,WUHU216HW,2013-05-15 16:30:00,
2013-05-15 08:35:00,38.4,28.4,29.32,ENE,68,0.0,0.0,67,0.00,,,0.00,WUHU216HW,2013-05-15 16:35:00,
2013-05-15 08:40:00,39.0,28.5,29.32,ENE,68,1.5,1.5,66,0.00,,,0.00,WUHU216HW,2013-05-15 16:40:00,
2013-05-15 08:45:00,39.9,28.6,29.32,ENE,68,1.5,1.5,64,0.00,,,0.00,WUHU216HW,2013-05-15 16:45:00,
2013-05-15 08:50:00,40.8,28.7,29.32,SE,135,1.1,1.5,62,0.00,,,0.00,WUHU216HW,2013-05-15 16:50:00,
2013-05-15 08:55:00,41.1,27.9,29.32,NE,45,0.0,1.3,59,0.00,,,0.00,WUHU216HW,2013-05-15 16:55:00,
2013-05-15 09:00:00,41.7,28.4,29.32,ENE,68,0.0,1.1,59,0.00,,,0.00,WUHU216HW,2013-05-15 17:00:00,
2013-05-15 09:06:00,42.6,28.7,29.32,ENE,68,0.0,3.3,58,0.00,,,0.00,WUHU216HW,2013-05-15 17:06:00,
2013-05-15 09:11:00,42.9,29.1,29.32,NE,45,0.4,3.3,58,0.00,,,0.00,WUHU216HW,2013-05-15 17:11:00,
2013-05-15 09:16:00,43.7,28.9,29.32,NE,45,2.0,2.2,56,0.00,,,0.00,WUHU216HW,2013-05-15 17:16:00,
2013-05-15 09:21:00,44.4,29.2,29.32,SE,135,0.6,2.2,55,0.00,,,0.00,WUHU216HW,2013-05-15 17:21:00,
2013-05-15 09:27:00,45.5,29.7,29.32,SE,135,0.8,1.1,54,0.00,,,0.00,WUHU216HW,2013-05-15 17:27:00,
2013-05-15 09:32:00,46.0,29.3,29.32,SSE,158,0.0,0.8,52,0.00,,,0.00,WUHU216HW,2013-05-15 17:32:00,
2013-05-15 09:37:00,46.5,29.3,29.32,ESE,113,2.2,2.2,51,0.00,,,0.00,WUHU216HW,2013-05-15 17:37:00,
2013-05-15 09:42:00,46.7,29.0,29.32,East,90,0.0,2.2,50,0.00,,,0.00,WUHU216HW,2013-05-15 17:42:00,
2013-05-15 09:47:00,46.9,29.2,29.32,East,90,0.0,0.0,50,0.00,,,0.00,WUHU216HW,2013-05-15 17:47:00,
2013-05-15 09:52:00,47.3,29.0,29.32,East,90,0.0,0.0,49,0.00,,,0.00,WUHU216HW,2013-05-15 17:52:00,
2013-05-15 09:58:00,48.0,29.6,29.32,SSE,158,0.0,0.0,49,0.00,,,0.00,WUHU216HW,2013-05-15 17:58:00,
2013-05-15 10:03:00,49.8,30.8,29.33,ESE,113,0.0,0.0,48,0.00,,,0.00,WUHU216HW,2013-05-15 18:03:00,
2013-05-15 10:08:00,51.6,31.9,29.32,SE,135,0.0,0.0,47,0.00,,,0.00,WUHU216HW,2013-05-15 18:08:00,
2013-05-15 10:13:00,53.4,32.4,29.32,NNE,23,0.0,2.2,45,0.00,,,0.00,WUHU216HW,2013-05-15 18:13:00,
2013-05-15 10:18:00,54.1,32.0,29.32,SE,135,2.9,2.9,43,0.00,,,0.00,WUHU216HW,2013-05-15 18:18:00,
2013-05-15 10:24:00,53.7,31.1,29.32,South,180,1.7,2.9,42,0.00,,,0.00,WUHU216HW,2013-05-15 18:24:00,
2013-05-15 10:29:00,53.2,30.6,29.32,SE,135,2.4,2.9,42,0.00,,,0.00,WUHU216HW,2013-05-15 18:29:00,
2013-05-15 10:34:00,53.2,30.6,29.32,SW,225,0.0,2.4,42,0.00,,,0.00,WUHU216HW,2013-05-15 18:34:00,
2013-05-15 10:39:00,53.7,31.1,29.32,NW,315,0.6,2.4,42,0.00,,,0.00,WUHU216HW,2013-05-15 18:39:00,
2013-05-15 10:44:00,55.4,32.0,29.32,NNW,338,0.0,0.6,41,0.00,,,0.00,WUHU216HW,2013-05-15 18:44:00,
2013-05-15 10:50:00,56.6,32.5,29.32,NNE,23,0.0,0.0,40,0.00,,,0.00,WUHU216HW,2013-05-15 18:50:00,
2013-05-15 10:55:00,57.0,32.2,29.32,WNW,293,0.0,0.0,39,0.00,,,0.00,WUHU216HW,2013-05-15 18:55:00,
2013-05-15 11:00:00,58.8,32.4,29.32,SE,135,4.4,4.4,37,0.00,,,0.00,WUHU216HW,2013-05-15 19:00:00,
2013-05-15 11:05:00,59.7,33.2,29.32,North,0,0.6,4.4,37,0.00,,,0.00,WUHU216HW,2013-05-15 19:05:00,
2013-05-15 11:11:00,60.0,32.8,29.32,SSE,158,2.9,4.4,36,0.00,,,0.00,WUHU216HW,2013-05-15 19:11:00,
2013-05-15 11:16:00,58.8,31.0,29.32,South,180,4.2,4.2,35,0.00,,,0.00,WUHU216HW,2013-05-15 19:16:00,
2013-05-15 11:21:00,57.0,30.1,29.32,SW,225,0.0,4.2,36,0.00,,,0.00,WUHU216HW,2013-05-15 19:21:00,
2013-05-15 11:26:00,57.0,30.1,29.32,South,180,0.6,4.0,36,0.00,,,0.00,WUHU216HW,2013-05-15 19:26:00,
2013-05-15 11:32:00,56.8,29.9,29.32,SW,225,1.1,4.0,36,0.00,,,0.00,WUHU216HW,2013-05-15 19:32:00,
2013-05-15 11:37:00,56.8,30.6,29.32,West,270,0.0,3.8,37,0.00,,,0.00,WUHU216HW,2013-05-15 19:37:00,
2013-05-15 11:42:00,55.9,29.8,29.32,West,270,0.0,3.8,37,0.00,,,0.00,WUHU216HW,2013-05-15 19:42:00,
2013-05-15 11:47:00,55.5,30.2,29.32,WNW,293,0.8,1.5,38,0.00,,,0.00,WUHU216HW,2013-05-15 19:47:00,
2013-05-15 11:52:00,55.2,29.1,29.32,WNW,293,0.0,1.5,37,0.00,,,0.00,WUHU216HW,2013-05-15 19:52:00,
2013-05-15 11:57:00,55.2,29.1,29.32,SSE,158,0.6,3.1,37,0.00,,,0.00,WUHU216HW,2013-05-15 19:57:00,
2013-05-15 12:02:00,54.6,28.0,29.32,ESE,113,0.0,3.1,36,0.00,,,0.00,WUHU216HW,2013-05-15 20:02:00,
2013-05-15 12:07:00,54.1,28.2,29.32,South,180,3.1,3.1,37,0.00,,,0.00,WUHU216HW,2013-05-15 20:07:00,
2013-05-15 12:13:00,54.5,28.5,29.32,SSW,203,1.5,4.0,37,0.00,,,0.00,WUHU216HW,2013-05-15 20:13:00,
2013-05-15 12:18:00,54.6,28.7,29.32,ESE,113,0.0,9.1,37,0.00,,,0.00,WUHU216HW,2013-05-15 20:18:00,
2013-05-15 12:23:00,54.1,28.2,29.32,NW,315,8.0,9.1,37,0.00,,,0.00,WUHU216HW,2013-05-15 20:23:00,
2013-05-15 12:28:00,54.1,28.2,29.32,West,270,0.0,8.0,37,0.00,,,0.00,WUHU216HW,2013-05-15 20:28:00,
2013-05-15 12:34:00,53.7,27.9,29.32,West,270,2.4,3.3,37,0.00,,,0.00,WUHU216HW,2013-05-15 20:34:00,
2013-05-15 12:39:00,53.2,27.4,29.32,SW,225,0.0,3.3,37,0.00,,,0.00,WUHU216HW,2013-05-15 20:39:00,
2013-05-15 12:44:00,52.8,27.8,29.32,South,180,6.7,6.7,38,0.00,,,0.00,WUHU216HW,2013-05-15 20:44:00,
2013-05-15 12:49:00,52.5,26.8,29.32,SSE,158,0.0,6.7,37,0.00,,,0.00,WUHU216HW,2013-05-15 20:49:00,
2013-05-15 12:54:00,52.3,27.3,29.32,SSW,203,0.0,6.7,38,0.00,,,0.00,WUHU216HW,2013-05-15 20:54:00,
2013-05-15 12:59:00,52.7,28.3,29.32,South,180,1.1,1.1,39,0.00,,,0.00,WUHU216HW,2013-05-15 20:59:00,
2013-05-15 13:04:00,52.8,27.8,29.32,SSW,203,0.0,1.1,38,0.00,,,0.00,WUHU216HW,2013-05-15 21:04:00,
2013-05-15 13:10:00,52.3,27.3,29.32,WNW,293,0.0,2.0,38,0.00,,,0.00,WUHU216HW,2013-05-15 21:10:00,
2013-05-15 13:15:00,52.3,27.3,29.32,SSE,158,8.5,8.5,38,0.00,,,0.00,WUHU216HW,2013-05-15 21:15:00,
2013-05-15 13:20:00,52.1,27.8,29.32,WSW,248,0.0,8.5,39,0.00,,,0.00,WUHU216HW,2013-05-15 21:20:00,
2013-05-15 13:25:00,52.1,27.8,29.32,South,180,4.9,4.9,39,0.00,,,0.00,WUHU216HW,2013-05-15 21:25:00,
2013-05-15 13:30:00,51.8,27.5,29.32,South,180,0.0,4.9,39,0.00,,,0.00,WUHU216HW,2013-05-15 21:30:00,
2013-05-15 13:35:00,51.4,27.2,29.33,West,270,2.4,5.1,39,0.00,,,0.00,WUHU216HW,2013-05-15 21:35:00,
2013-05-15 13:40:00,51.0,28.6,29.33,West,270,1.3,5.3,42,0.00,,,0.00,WUHU216HW,2013-05-15 21:40:00,
2013-05-15 13:45:00,51.4,29.0,29.32,SSW,203,4.9,5.3,42,0.00,,,0.00,WUHU216HW,2013-05-15 21:45:00,
2013-05-15 13:50:00,51.4,29.5,29.33,NW,315,8.7,8.7,43,0.00,,,0.00,WUHU216HW,2013-05-15 21:50:00,
2013-05-15 13:55:00,51.9,30.0,29.33,WNW,293,3.3,8.7,43,0.00,,,0.00,WUHU216HW,2013-05-15 21:55:00,
2013-05-15 14:00:00,52.1,30.2,29.33,West,270,3.3,8.5,43,0.00,,,0.00,WUHU216HW,2013-05-15 22:00:00,
2013-05-15 14:05:00,52.3,30.3,29.33,WNW,293,3.5,7.1,43,0.00,,,0.00,WUHU216HW,2013-05-15 22:05:00,
2013-05-15 14:10:00,52.3,30.3,29.33,WNW,293,3.1,4.0,43,0.00,,,0.00,WUHU216HW,2013-05-15 22:10:00,
2013-05-15 14:16:00,51.9,30.0,29.33,WNW,293,0.0,3.5,43,0.00,,,0.00,WUHU216HW,2013-05-15 22:16:00,
2013-05-15 14:21:00,52.3,30.3,29.33,West,270,4.4,5.1,43,0.00,,,0.00,WUHU216HW,2013-05-15 22:21:00,
2013-05-15 14:26:00,52.5,30.5,29.33,SW,225,2.9,5.1,43,0.00,,,0.00,WUHU216HW,2013-05-15 22:26:00,
2013-05-15 14:31:00,53.2,31.1,29.33,West,270,0.0,3.5,43,0.00,,,0.00,WUHU216HW,2013-05-15 22:31:00,
2013-05-15 14:37:00,54.1,32.0,29.33,WNW,293,4.0,4.0,43,0.00,,,0.00,WUHU216HW,2013-05-15 22:37:00,
2013-05-15 14:42:00,56.4,33.5,29.33,WNW,293,6.7,6.7,42,0.00,,,0.00,WUHU216HW,2013-05-15 22:42:00,
2013-05-15 14:47:00,57.3,33.2,29.33,West,270,0.0,6.7,40,0.00,,,0.00,WUHU216HW,2013-05-15 22:47:00,
2013-05-15 14:52:00,57.7,32.8,29.33,WSW,248,0.0,6.7,39,0.00,,,0.00,WUHU216HW,2013-05-15 22:52:00,
2013-05-15 14:57:00,59.1,33.4,29.33,ENE,68,0.8,0.8,38,0.00,,,0.00,WUHU216HW,2013-05-15 22:57:00,
2013-05-15 15:02:00,60.0,33.5,29.33,SSE,158,2.4,2.4,37,0.00,,,0.00,WUHU216HW,2013-05-15 23:02:00,
2013-05-15 15:08:00,60.0,33.5,29.33,SSE,158,0.0,2.4,37,0.00,,,0.00,WUHU216HW,2013-05-15 23:08:00,
2013-05-15 15:13:00,61.8,35.1,29.33,North,0,0.0,2.4,37,0.00,,,0.00,WUHU216HW,2013-05-15 23:13:00,
2013-05-15 15:18:00,62.9,34.6,29.33,NNW,338,0.0,1.5,35,0.00,,,0.00,WUHU216HW,2013-05-15 23:18:00,
2013-05-15 15:23:00,61.7,33.5,29.32,SW,225,5.5,5.5,35,0.00,,,0.00,WUHU216HW,2013-05-15 23:23:00,
2013-05-15 15:28:00,59.5,31.6,29.32,SW,225,6.4,6.4,35,0.00,,,0.00,WUHU216HW,2013-05-15 23:28:00,
2013-05-15 15:33:00,56.4,29.6,29.33,SSW,203,6.4,6.4,36,0.00,,,0.00,WUHU216HW,2013-05-15 23:33:00,
2013-05-15 15:38:00,55.2,29.1,29.32,West,270,0.0,6.4,37,0.00,,,0.00,WUHU216HW,2013-05-15 23:38:00,
2013-05-15 15:43:00,54.1,28.9,29.32,SW,225,2.4,6.4,38,0.00,,,0.00,WUHU216HW,2013-05-15 23:43:00,
2013-05-15 15:49:00,53.4,28.3,29.33,West,270,0.0,4.4,38,0.00,,,0.00,WUHU216HW,2013-05-15 23:49:00,
2013-05-15 15:54:00,53.4,29.6,29.33,WSW,248,0.8,0.8,40,0.00,,,0.00,WUHU216HW,2013-05-15 23:54:00,
2013-05-15 15:59:00,54.1,29.6,29.33,South,180,1.1,1.3,39,0.00,,,0.00,WUHU216HW,2013-05-15 23:59:00,
2013-05-15 16:04:00,54.1,29.6,29.33,SE,135,0.0,1.3,39,0.00,,,0.00,WUHU216HW,2013-05-16 00:04:00,
2013-05-15 16:09:00,54.1,29.6,29.33,WNW,293,0.0,1.1,39,0.00,,,0.00,WUHU216HW,2013-05-16 00:09:00,
2013-05-15 16:14:00,53.9,30.1,29.33,NW,315,2.4,2.4,40,0.00,,,0.00,WUHU216HW,2013-05-16 00:14:00,
2013-05-15 16:19:00,53.4,30.2,29.33,NW,315,6.2,6.2,41,0.00,,,0.00,WUHU216HW,2013-05-16 00:19:00,
2013-05-15 16:24:00,52.8,29.7,29.34,West,270,1.1,6.2,41,0.00,,,0.00,WUHU216HW,2013-05-16 00:24:00,
2013-05-15 16:29:00,52.3,29.2,29.34,WNW,293,2.4,3.1,41,0.00,,,0.00,WUHU216HW,2013-05-16 00:29:00,
2013-05-15 16:35:00,52.1,29.6,29.34,WNW,293,1.1,4.2,42,0.00,,,0.00,WUHU216HW,2013-05-16 00:35:00,
2013-05-15 16:40:00,51.9,29.4,29.33,WNW,293,3.5,4.2,42,0.00,,,0.00,WUHU216HW,2013-05-16 00:40:00,
2013-05-15 16:45:00,51.9,29.4,29.34,WNW,293,4.4,4.4,42,0.00,,,0.00,WUHU216HW,2013-05-16 00:45:00,
2013-05-15 16:50:00,51.9,30.0,29.34,West,270,0.0,4.4,43,0.00,,,0.00,WUHU216HW,2013-05-16 00:50:00,
2013-05-15 16:55:00,51.6,29.7,29.34,WNW,293,0.0,2.4,43,0.00,,,0.00,WUHU216HW,2013-05-16 00:55:00,
2013-05-15 17:00:00,51.4,29.5,29.34,West,270,0.2,0.2,43,0.00,,,0.00,WUHU216HW,2013-05-16 01:00:00,
2013-05-15 17:05:00,51.0,29.2,29.34,WSW,248,0.0,1.7,43,0.00,,,0.00,WUHU216HW,2013-05-16 01:05:00,
2013-05-15 17:10:00,50.5,28.7,29.34,NW,315,0.6,1.7,43,0.00,,,0.00,WUHU216HW,2013-05-16 01:10:00,
2013-05-15 17:15:00,49.8,28.6,29.34,SE,135,1.1,1.1,44,0.00,,,0.00,WUHU216HW,2013-05-16 01:15:00,
2013-05-15 17:20:00,49.1,27.9,29.33,SE,135,0.8,8.9,44,0.00,,,0.00,WUHU216HW,2013-05-16 01:20:00,
2013-05-15 17:25:00,48.7,28.7,29.34,NNE,23,8.9,8.9,46,0.00,,,0.00,WUHU216HW,2013-05-16 01:25:00,
2013-05-15 17:31:00,48.2,28.7,29.34,NNE,23,0.0,8.9,47,0.00,,,0.00,WUHU216HW,2013-05-16 01:31:00,
2013-05-15 17:36:00,48.0,29.1,29.34,NNE,23,5.5,5.5,48,0.00,,,0.00,WUHU216HW,2013-05-16 01:36:00,
2013-05-15 17:41:00,47.8,28.9,29.34,NE,45,3.5,5.5,48,0.00,,,0.00,WUHU216HW,2013-05-16 01:41:00,
2013-05-15 17:46:00,47.4,29.1,29.34,NNE,23,2.9,4.4,49,0.00,,,0.00,WUHU216HW,2013-05-16 01:46:00,
2013-05-15 17:51:00,47.3,28.4,29.34,NE,45,5.1,5.1,48,0.00,,,0.00,WUHU216HW,2013-05-16 01:51:00,
2013-05-15 17:56:00,47.3,28.4,29.35,ESE,113,2.0,5.1,48,0.00,,,0.00,WUHU216HW,2013-05-16 01:56:00,
2013-05-15 18:01:00,47.1,28.3,29.34,ENE,68,2.2,4.4,48,0.00,,,0.00,WUHU216HW,2013-05-16 02:01:00,
2013-05-15 18:06:00,46.5,28.3,29.34,NNE,23,0.0,2.2,49,0.00,,,0.00,WUHU216HW,2013-05-16 02:06:00,
2013-05-15 18:11:00,46.5,28.3,29.35,ENE,68,5.5,5.5,49,0.00,,,0.00,WUHU216HW,2013-05-16 02:11:00,
2013-05-15 18:16:00,46.2,28.5,29.35,ESE,113,2.4,5.5,50,0.00,,,0.00,WUHU216HW,2013-05-16 02:16:00,
2013-05-15 18:21:00,46.0,29.3,29.35,SSE,158,0.0,5.5,52,0.00,,,0.00,WUHU216HW,2013-05-16 02:21:00,
2013-05-15 18:26:00,45.6,29.0,29.35,West,270,0.0,2.4,52,0.00,,,0.00,WUHU216HW,2013-05-16 02:26:00,
2013-05-15 18:31:00,45.5,29.3,29.35,West,270,0.0,0.0,53,0.00,,,0.00,WUHU216HW,2013-05-16 02:31:00,
2013-05-15 18:36:00,45.6,29.4,29.35,NW,315,0.0,0.0,53,0.00,,,0.00,WUHU216HW,2013-05-16 02:36:00,
2013-05-15 18:41:00,45.5,29.7,29.35,SSW,203,0.0,0.0,54,0.00,,,0.00,WUHU216HW,2013-05-16 02:41:00,
2013-05-15 18:46:00,45.3,29.5,29.35,WNW,293,0.0,0.0,54,0.00,,,0.00,WUHU216HW,2013-05-16 02:46:00,
2013-05-15 18:52:00,45.3,30.0,29.36,WNW,293,0.0,0.0,55,0.00,,,0.00,WUHU216HW,2013-05-16 02:52:00,
2013-05-15 18:57:00,45.3,30.0,29.35,SSE,158,7.1,7.1,55,0.00,,,0.00,WUHU216HW,2013-05-16 02:57:00,
2013-05-15 19:02:00,45.5,29.7,29.35,SE,135,0.0,7.1,54,0.00,,,0.00,WUHU216HW,2013-05-16 03:02:00,
2013-05-15 19:07:00,45.5,29.3,29.35,ESE,113,6.9,10.5,53,0.00,,,0.00,WUHU216HW,2013-05-16 03:07:00,
2013-05-15 19:12:00,45.6,29.0,29.35,SSE,158,3.8,10.5,52,0.00,,,0.00,WUHU216HW,2013-05-16 03:12:00,
2013-05-15 19:17:00,45.6,29.0,29.35,NE,45,1.7,7.3,52,0.00,,,0.00,WUHU216HW,2013-05-16 03:17:00,
2013-05-15 19:22:00,45.6,29.0,29.35,SE,135,3.1,7.3,52,0.00,,,0.00,WUHU216HW,2013-05-16 03:22:00,
2013-05-15 19:27:00,45.6,28.5,29.35,ESE,113,3.3,3.5,51,0.00,,,0.00,WUHU216HW,2013-05-16 03:27:00,
2013-05-15 19:33:00,45.6,28.5,29.35,ENE,68,0.0,4.0,51,0.00,,,0.00,WUHU216HW,2013-05-16 03:33:00,
2013-05-15 19:38:00,45.6,28.5,29.35,East,90,1.5,4.0,51,0.00,,,0.00,WUHU216HW,2013-05-16 03:38:00,
2013-05-15 19:43:00,45.6,28.1,29.35,SE,135,5.3,5.3,50,0.00,,,0.00,WUHU216HW,2013-05-16 03:43:00,
2013-05-15 19:48:00,45.5,27.9,29.35,East,90,2.9,5.3,50,0.00,,,0.00,WUHU216HW,2013-05-16 03:48:00,
2013-05-15 19:53:00,45.5,28.4,29.34,SE,135,7.1,7.1,51,0.00,,,0.00,WUHU216HW,2013-05-16 03:53:00,
2013-05-15 19:59:00,45.3,28.2,29.34,SE,135,11.8,11.8,51,0.00,,,0.00,WUHU216HW,2013-05-16 03:59:00,
2013-05-15 20:01:00,45.3,28.2,29.34,ENE,68,5.8,11.8,51,0.00,,,0.00,WUHU216HW,2013-05-16 04:01:00,
2013-05-15 20:06:00,45.3,28.6,29.34,ESE,113,3.1,11.8,52,0.00,,,0.00,WUHU216HW,2013-05-16 04:06:00,
2013-05-15 20:11:00,45.1,28.5,29.34,SE,135,3.5,4.9,52,0.00,,,0.00,WUHU216HW,2013-05-16 04:11:00,
2013-05-15 20:16:00,45.1,28.5,29.34,ENE,68,0.0,5.8,52,0.00,,,0.00,WUHU216HW,2013-05-16 04:16:00,
2013-05-15 20:21:00,45.1,28.5,29.34,SE,135,6.7,6.7,52,0.00,,,0.00,WUHU216HW,2013-05-16 04:21:00,
2013-05-15 20:26:00,45.1,28.5,29.34,SE,135,6.9,6.9,52,0.00,,,0.00,WUHU216HW,2013-05-16 04:26:00,
2013-05-15 20:31:00,45.3,28.6,29.34,NE,45,5.3,6.9,52,0.00,,,0.00,WUHU216HW,2013-05-16 04:31:00,
2013-05-15 20:36:00,45.1,28.9,29.34,SE,135,6.2,6.9,52,0.00,,,0.00,WUHU216HW,2013-05-16 04:36:00,
2013-05-15 20:41:00,44.7,28.6,29.34,SE,135,8.0,8.0,53,0.00,,,0.00,WUHU216HW,2013-05-16 04:41:00,
2013-05-15 20:46:00,44.7,28.6,29.34,SE,135,5.1,8.0,53,0.00,,,0.00,WUHU216HW,2013-05-16 04:46:00,
2013-05-15 20:51:00,44.4,28.4,29.34,SE,135,3.8,8.0,53,0.00,,,0.00,WUHU216HW,2013-05-16 04:51:00,
2013-05-15 20:56:00,44.6,28.4,29.33,SE,135,4.9,4.9,53,0.00,,,0.00,WUHU216HW,2013-05-16 04:56:00,
2013-05-15 21:01:00,44.4,28.3,29.33,ESE,113,0.0,4.9,53,0.00,,,0.00,WUHU216HW,2013-05-16 05:01:00,
2013-05-15 21:06:00,44.2,28.3,29.34,ESE,113,0.0,4.9,53,0.00,,,0.00,WUHU216HW,2013-05-16 05:06:00,
2013-05-15 21:11:00,44.2,28.1,29.33,SE,135,4.4,4.4,53,0.00,,,0.00,WUHU216HW,2013-05-16 05:11:00,
2013-05-15 21:16:00,43.8,27.8,29.34,ESE,113,2.4,4.4,53,0.00,,,0.00,WUHU216HW,2013-05-16 05:16:00,
2013-05-15 21:21:00,43.5,27.4,29.34,SE,135,0.0,4.4,53,0.00,,,0.00,WUHU216HW,2013-05-16 05:21:00,
2013-05-15 21:26:00,43.3,27.3,29.33,East,90,4.0,4.0,53,0.00,,,0.00,WUHU216HW,2013-05-16 05:26:00,
2013-05-15 21:32:00,42.9,26.9,29.33,ENE,68,5.1,5.1,53,0.00,,,0.00,WUHU216HW,2013-05-16 05:32:00,
2013-05-15 21:37:00,42.6,27.0,29.34,NE,45,0.0,5.1,54,0.00,,,0.00,WUHU216HW,2013-05-16 05:37:00,
2013-05-15 21:42:00,42.4,26.8,29.34,ENE,68,0.4,2.4,54,0.00,,,0.00,WUHU216HW,2013-05-16 05:42:00,
2013-05-15 21:47:00,42.0,26.5,29.34,NNE,23,0.0,1.1,54,0.00,,,0.00,WUHU216HW,2013-05-16 05:47:00,
2013-05-15 21:52:00,41.7,26.6,29.34,NE,45,0.0,3.1,55,0.00,,,0.00,WUHU216HW,2013-05-16 05:52:00,
2013-05-15 21:57:00,41.5,26.4,29.34,ENE,68,0.0,5.1,55,0.00,,,0.00,WUHU216HW,2013-05-16 05:57:00,
2013-05-15 22:02:00,41.1,26.5,29.34,East,90,0.0,5.1,56,0.00,,,0.00,WUHU216HW,2013-05-16 06:02:00,
2013-05-15 22:07:00,40.8,26.2,29.34,NE,45,2.9,2.9,56,0.00,,,0.00,WUHU216HW,2013-05-16 06:07:00,
2013-05-15 22:13:00,40.8,26.2,29.34,NE,45,0.6,2.9,56,0.00,,,0.00,WUHU216HW,2013-05-16 06:13:00,
2013-05-15 22:18:00,40.6,26.5,29.34,ENE,68,2.2,2.4,57,0.00,,,0.00,WUHU216HW,2013-05-16 06:18:00,
2013-05-15 22:23:00,40.2,26.6,29.34,ESE,113,3.8,5.3,58,0.00,,,0.00,WUHU216HW,2013-05-16 06:23:00,
2013-05-15 22:28:00,40.2,26.6,29.33,ENE,68,2.9,5.3,58,0.00,,,0.00,WUHU216HW,2013-05-16 06:28:00,
2013-05-15 22:33:00,40.2,27.0,29.34,NE,45,4.4,4.4,59,0.00,,,0.00,WUHU216HW,2013-05-16 06:33:00,
2013-05-15 22:38:00,40.2,27.0,29.34,East,90,0.0,4.4,59,0.00,,,0.00,WUHU216HW,2013-05-16 06:38:00,
2013-05-15 22:43:00,40.1,26.8,29.34,NE,45,1.5,2.2,59,0.00,,,0.00,WUHU216HW,2013-05-16 06:43:00,
2013-05-15 22:48:00,40.1,26.8,29.34,NE,45,5.3,5.3,59,0.00,,,0.00,WUHU216HW,2013-05-16 06:48:00,
2013-05-15 22:53:00,39.9,26.6,29.34,ENE,68,0.0,10.2,59,0.00,,,0.00,WUHU216HW,2013-05-16 06:53:00,
2013-05-15 22:58:00,39.9,26.6,29.34,ENE,68,0.6,10.2,59,0.00,,,0.00,WUHU216HW,2013-05-16 06:58:00,
2013-05-15 23:03:00,39.9,27.1,29.34,NE,45,0.0,0.6,60,0.00,,,0.00,WUHU216HW,2013-05-16 07:03:00,
2013-05-15 23:08:00,39.7,26.9,29.33,ENE,68,0.0,1.1,60,0.00,,,0.00,WUHU216HW,2013-05-16 07:08:00,
2013-05-15 23:13:00,39.7,26.9,29.33,ENE,68,0.0,1.1,60,0.00,,,0.00,WUHU216HW,2013-05-16 07:13:00,
2013-05-15 23:18:00,39.7,26.9,29.33,NE,45,0.4,0.4,60,0.00,,,0.00,WUHU216HW,2013-05-16 07:18:00,
2013-05-15 23:23:00,39.7,26.9,29.33,ENE,68,0.0,2.4,60,0.00,,,0.00,WUHU216HW,2013-05-16 07:23:00,
2013-05-15 23:28:00,39.7,26.9,29.33,SE,135,3.1,3.1,60,0.00,,,0.00,WUHU216HW,2013-05-16 07:28:00,
2013-05-15 23:33:00,39.5,26.7,29.33,East,90,0.0,3.1,60,0.00,,,0.00,WUHU216HW,2013-05-16 07:33:00,
2013-05-15 23:38:00,39.3,26.6,29.33,NE,45,0.8,3.1,60,0.00,,,0.00,WUHU216HW,2013-05-16 07:38:00,
2013-05-15 23:43:00,39.3,26.6,29.33,ENE,68,0.4,0.8,60,0.00,,,0.00,WUHU216HW,2013-05-16 07:43:00,
2013-05-15 23:48:00,39.3,26.9,29.33,ENE,68,0.0,1.1,61,0.00,,,0.00,WUHU216HW,2013-05-16 07:48:00,
2013-05-15 23:53:00,39.0,26.6,29.33,ENE,68,0.0,1.1,61,0.00,,,0.00,WUHU216HW,2013-05-16 07:53:00,
2013-05-15 23:58:00,39.0,26.6,29.33,NE,45,0.0,0.0,61,0.00,,,0.00,WUHU216HW,2013-05-16 07:58:00,